Regional Weather Roundup
Issued by NWS

Home | Current Version | Previous Version | Graphics & Text | Print | Product List | Glossary On
Versions: 1 2 3 4 5 6 7 8 9 10 11 12 13 14 15 16 17 18 19 20 21 22 23 24 25 26 27 28 29 30 31 32 33 34 35 36 37 38 39 40 41 42 43 44 45 46 47 48 49 50
000
ASUS43 KTOP 250408
RWRKS

WEATHER ROUNDUP FOR KANSAS
NATIONAL WEATHER SERVICE GOODLAND KS
1100 PM CDT SUN MAY 24 2015

NOTE:  "FAIR" INDICATES FEW OR NO CLOUDS BELOW 12,000 FEET WITH NO
SIGNIFICANT WEATHER AND/OR OBSTRUCTIONS TO VISIBILITY.

KSZ001>006-013>018-027>032-041>047-250500-
NORTHWEST KANSAS

CITY           SKY/WX    TMP DP  RH WIND       PRES   REMARKS
GOODLAND       LGT RAIN  52  50  93 NE7       29.82S
HAYS           CLOUDY    61  54  77 S12       29.84R
HILL CITY      CLOUDY    63  59  87 S9        29.83R
RUSSELL        CLOUDY    61  59  93 S12       29.82R
$$

KSZ061>065-074>080-084>089-250500-
SOUTHWEST KANSAS

CITY           SKY/WX    TMP DP  RH WIND       PRES   REMARKS
DODGE CITY     LGT RAIN  61  59  93 SE22      29.82S FOG
ELKHART          N/A     57  48  72 NW7         N/A
GARDEN CITY    CLOUDY    56  50  80 NW17      29.85R
GREAT BEND     CLOUDY    59  54  82 S8        29.84R
LIBERAL        CLOUDY    64  57  77 SE20      29.74F
PRATT          CLOUDY    55  55 100 SE6       29.85R
$$

KSZ066>073-081>083-090>101-250500-
SOUTHEAST KANSAS

CITY           SKY/WX    TMP DP  RH WIND       PRES   REMARKS
CHANUTE        LGT RAIN  63  62  97 SW7       29.87S
COFFEYVILLE    CLOUDY    61  61 100 S8        29.89R
HUTCHINSON     CLOUDY    59  56  89 S6        29.85R
MEDICINE LODGE   N/A     58  57  97 SE5       29.83R
NEWTON         CLOUDY    61  55  82 SW9       29.86R
PARSONS        LGT RAIN  62  61  96 CALM      29.89S
WICHITA INTL   CLOUDY    60  58  92 S6        29.86R
WICHITA JABRA  CLOUDY    61  59  93 S8        29.85S
WICHITA MCCONL CLOUDY    61  59  94 S9        29.86S
WINFIELD       CLOUDY    63  61  93 SE7       29.88S
$$

KSZ007>012-019>026-033>040-048>060-102>105-250500-
NORTHEAST KANSAS

CITY           SKY/WX    TMP DP  RH WIND       PRES   REMARKS
CONCORDIA      CLOUDY    63  60  90 S12       29.81S
EMPORIA        CLOUDY    62  60  93 SE10G18   29.81F
LAWRENCE       CLOUDY    64  61  90 S6        29.83R
MANHATTAN      CLOUDY    64  60  87 W5        29.81R
MARYSVILLE     CLOUDY    63  61  94 SW6       29.81S
OLATHE IND     CLOUDY    64  62  93 S7        29.84R
OLATHE EXE     CLOUDY    64  63  96 SW7       29.83S
SALINA         CLOUDY    61  58  90 S7        29.83R
TOPEKA BILLARD CLOUDY    64  62  93 S5        29.82S
TOPEKA FORBES  CLOUDY    65  61  87 S6        29.81F
$$


USA.gov is the U.S. government's official web portal to all federal, state and local government web resources and services.